Weather History for Laramie, WY

Change the Weather History Date:

Monday, October 29, 2012

  Actual Average Record
Temperature  
Mean Temperature 46 °F 37 °F  
Max Temperature 56 °F 50 °F 72 °F (1968)
Min Temperature 36 °F 24 °F -13 °F (1993)
Degree Days  
Heating Degree Days 19 28  
Month to date heating degree days 691 659  
Since 1 July heating degree days 1026 1184  
Cooling Degree Days 0 0  
Month to date cooling degree days 0 0  
Year to date cooling degree days 211 67  
Moisture  
Dew Point 32 °F    
Average Humidity 61    
Maximum Humidity 76    
Minimum Humidity 46    
Precipitation  
Precipitation 0.00 in 0.02 in 0.38 in (1979)
Month to date precipitation 1.01 0.76  
Year to date precipitation 5.90 10.02  
Sea Level Pressure  
Sea Level Pressure 30.03 in    
Wind  
Wind Speed 16 mph (WSW)    
Max Wind Speed 28 mph    
Max Gust Speed 35 mph    
Visibility 10 miles    
Events      
T = Trace of Precipitation, MM = Missing Value Source: NWS Daily Summary

Daily Weather History Graph

Daily Weather History Graph

Search for Another Location

Airport:

Trip Planner

Search our weather history database for the weather conditions in past years. The results will help you decide how hot, cold, wet, or windy it might be!

Date:

Astronomy

Oct. 29, 2012 Rise Set
Actual Time 7:31 AM MDT 6:00 PM MDT
Civil Twilight 7:02 AM MDT 6:29 PM MDT
Nautical Twilight 6:30 AM MDT 7:01 PM MDT
Astronomical Twilight 5:57 AM MDT 7:34 PM MDT
Moon 5:54 PM MDT (10/29) 7:24 AM MDT (10/29)
Length of Visible Light 11h 26m
Length of Day
10h 29m
Full, 100% of the Moon is Illuminated
Oct 29
Full
Oct 29
Full
Nov 6
Last Quarter
Nov 13
New
Nov 20
First Quarter

Hourly Weather History & Observations

Time (MDT) Temp. Windchill Dew Point Humidity Pressure Visibility Wind Dir Wind Speed Gust Speed Precip Events Conditions
12:53 AM 39.9 °F 31.8 °F 32.0 °F 73% 30.05 in 10.0 mi WSW 15.0 mph - N/A   Mostly Cloudy
1:53 AM 39.9 °F 30.8 °F 30.9 °F 70% 30.04 in 10.0 mi WSW 18.4 mph 27.6 mph N/A   Clear
2:53 AM 39.9 °F 33.4 °F 32.0 °F 73% 30.05 in 10.0 mi SW 10.4 mph - N/A   Clear
3:53 AM 37.0 °F 28.5 °F 30.9 °F 79% 30.05 in 10.0 mi South 13.8 mph - N/A   Clear
4:53 AM 39.9 °F 30.2 °F 32.0 °F 73% 30.03 in 10.0 mi SW 20.7 mph - N/A   Clear
5:53 AM 41.0 °F 31.6 °F 32.0 °F 70% 30.02 in 10.0 mi WSW 20.7 mph - N/A   Clear
6:53 AM 42.1 °F 33.3 °F 32.0 °F 67% 30.02 in 10.0 mi WSW 19.6 mph - N/A   Clear
7:53 AM 39.9 °F 30.5 °F 32.0 °F 73% 30.06 in 10.0 mi WSW 19.6 mph - N/A   Clear
8:53 AM 43.0 °F 34.5 °F 32.0 °F 65% 30.06 in 10.0 mi WSW 19.6 mph - N/A   Clear
9:53 AM 46.9 °F - 34.0 °F 61% 30.06 in 10.0 mi WSW 11.5 mph - N/A   Partly Cloudy
10:53 AM 52.0 °F - 35.1 °F 53% 30.02 in 10.0 mi West 16.1 mph 23.0 mph N/A   Clear
11:53 AM 54.0 °F - 35.1 °F 49% 30.01 in 10.0 mi West 19.6 mph 26.5 mph N/A   Clear
12:53 PM 55.0 °F - 35.1 °F 47% 30.00 in 10.0 mi West 26.5 mph 33.4 mph N/A   Clear
1:53 PM 53.1 °F - 34.0 °F 48% 30.00 in 10.0 mi West 18.4 mph - N/A   Clear
2:53 PM 54.0 °F - 34.0 °F 47% 29.98 in 10.0 mi West 24.2 mph - N/A   Partly Cloudy
3:53 PM 52.0 °F - 33.1 °F 49% 30.02 in 10.0 mi WSW 21.9 mph - N/A   Clear
4:53 PM 53.1 °F - 33.1 °F 47% 29.99 in 10.0 mi West 16.1 mph - N/A   Clear
5:53 PM 48.9 °F - 33.1 °F 54% 30.03 in 10.0 mi West 10.4 mph - N/A   Clear
6:53 PM 44.1 °F 37.7 °F 32.0 °F 63% 30.06 in 10.0 mi WSW 12.7 mph - N/A   Clear
7:53 PM 42.1 °F 35.7 °F 30.9 °F 65% 30.07 in 10.0 mi WSW 11.5 mph 20.7 mph N/A   Partly Cloudy
8:53 PM 45.0 °F 38.5 °F 30.0 °F 56% 30.05 in 10.0 mi SSW 13.8 mph - N/A   Mostly Cloudy
9:53 PM 43.0 °F 35.4 °F 30.9 °F 62% 30.04 in 10.0 mi West 16.1 mph - N/A   Clear
10:53 PM 39.9 °F 34.5 °F 30.0 °F 68% 30.05 in 10.0 mi West 8.1 mph - N/A   Clear
11:53 PM 39.9 °F 33.9 °F 30.9 °F 70% 30.04 in 10.0 mi WNW 9.2 mph - N/A   Clear